FW9473 Weather Reports


Display with metric or nautical units.
time (UTC)temp
F
wind
direction
speed
MPH
gust
MPH
rain 1hr
in
rain 24hr
in
rain mn
in
humidity
%
barometer
mb
20260508224600 66 0 0.0 2.0 0.00 0.00 0.00 70 1017.0
20260508223051 67 128 0.0 6.0 0.00 0.00 0.00 69 1017.4
20260508221558 67 140 0.0 4.0 0.00 0.00 0.00 69 1017.1
20260508220048 67 0 0.0 3.0 0.00 0.00 0.00 67 1017.2
20260508214546 67 0 0.0 5.0 0.00 0.00 0.00 65 1017.0
20260508213110 68 0 0.0 4.0 0.00 0.00 0.00 65 1017.1
20260508211554 68 0 0.0 7.0 0.00 0.00 0.00 62 1016.9
20260508210049 69 0 0.0 5.0 0.00 0.00 0.00 60 1017.5
20260508204548 69 214 0.0 7.0 0.00 0.00 0.00 59 1017.2
20260508203045 69 193 1.0 6.0 0.00 0.00 0.00 58 1017.3
20260508201551 69 0 0.0 7.0 0.00 0.00 0.00 57 1017.5
20260508200054 70 228 1.0 7.0 0.00 0.00 0.00 56 1017.8
20260508194549 70 138 1.0 6.0 0.00 0.00 0.00 53 1017.8
20260508193120 70 79 2.0 5.0 0.00 0.00 0.00 53 1018.3
20260508191550 69 0 2.0 8.0 0.00 0.00 0.00 54 1018.2
20260508190050 69 229 2.0 11.0 0.00 0.00 0.00 54 1018.5
20260508184609 70 295 2.0 5.0 0.00 0.00 0.00 55 1018.5
20260508183051 70 240 1.0 7.0 0.00 0.00 0.00 55 1019.0
20260508181550 69 182 1.0 12.0 0.00 0.00 0.00 57 1019.4
20260508180058 68 55 3.0 6.0 0.00 0.00 0.00 55 1019.3
20260508174611 68 306 3.0 8.0 0.00 0.00 0.00 56 1019.6
20260508173104 69 229 2.0 9.0 0.00 0.00 0.00 55 1019.7
20260508171615 69 252 0.0 6.0 0.00 0.00 0.00 60 1019.9
20260508170054 68 217 2.0 9.0 0.00 0.00 0.00 55 1020.0
20260508164548 68 244 3.0 8.0 0.00 0.00 0.00 55 1020.3
20260508163047 67 303 2.0 8.0 0.00 0.00 0.00 59 1020.5
20260508161559 67 120 3.0 8.0 0.00 0.00 0.00 57 1020.8
20260508160053 66 63 3.0 8.0 0.00 0.00 0.00 55 1020.8
20260508154549 65 68 2.0 4.0 0.00 0.00 0.00 59 1021.0
20260508153050 66 98 2.0 6.0 0.00 0.00 0.00 58 1021.3
20260508151555 65 96 0.0 4.0 0.00 0.00 0.00 60 1021.3
20260508150049 64 134 2.0 8.0 0.00 0.00 0.00 62 1021.4
20260508144550 63 77 2.0 7.0 0.00 0.00 0.00 63 1021.1
20260508143053 63 65 1.0 7.0 0.00 0.00 0.00 65 1020.9
20260508141553 62 149 3.0 8.0 0.00 0.00 0.00 69 1021.1
20260508140049 61 53 0.0 6.0 0.00 0.00 0.00 73 1021.5
20260508134614 60 63 3.0 7.0 0.00 0.00 0.00 74 1021.5
20260508133110 59 94 3.0 7.0 0.00 0.00 0.00 78 1021.6
20260508131559 58 0 0.0 6.0 0.00 0.00 0.00 81 1021.5
20260508124552 56 0 0.0 0.0 0.00 0.00 0.00 81 1021.2
20260508123101 55 0 0.0 0.0 0.00 0.00 0.00 91 1021.0
20260508121557 53 0 0.0 0.0 0.00 0.00 0.00 95 1020.8
20260508120055 52 0 0.0 1.0 0.00 0.00 0.00 96 1020.6
20260508114605 51 0 0.0 0.0 0.00 0.00 0.00 96 1020.4
20260508113103 51 0 0.0 0.0 0.00 0.00 0.00 96 1020.2
20260508111600 50 0 0.0 0.0 0.00 0.00 0.00 96 1019.8
20260508110059 50 0 0.0 0.0 0.00 0.00 0.00 96 1019.3
20260508104553 50 0 0.0 0.0 0.00 0.00 0.00 96 1019.2
20260508103048 50 0 0.0 0.0 0.00 0.00 0.00 96 1019.0
20260508101548 50 0 0.0 0.0 0.00 0.00 0.00 96 1018.6
20260508100052 50 0 0.0 0.0 0.00 0.00 0.00 96 1018.5
20260508094548 50 0 0.0 0.0 0.00 0.00 0.00 96 1018.3
20260508093043 50 0 0.0 0.0 0.00 0.00 0.00 96 1018.0
20260508091610 50 0 0.0 0.0 0.00 0.00 0.00 95 1018.0
20260508090059 50 0 0.0 0.0 0.00 0.00 0.00 95 1018.1
20260508084548 51 0 0.0 0.0 0.00 0.00 0.00 95 1017.7
20260508083053 50 0 0.0 0.0 0.00 0.00 0.00 95 1017.6
20260508081552 51 0 0.0 0.0 0.00 0.00 0.00 95 1017.9
20260508080052 52 0 0.0 0.0 0.00 0.00 0.00 95 1017.6
20260508074549 51 0 0.0 0.0 0.00 0.00 0.00 94 1017.6
20260508073050 52 0 0.0 0.0 0.00 0.00 0.00 94 1017.7
20260508071556 52 0 0.0 0.0 0.00 0.00 0.00 94 1017.8
20260508070100 53 0 0.0 0.0 0.00 0.00 0.00 94 1017.8
20260508064600 53 0 0.0 0.0 0.00 0.00 0.00 93 1017.6
20260508063138 53 0 0.0 0.0 0.00 0.00 0.00 93 1017.4
20260508061556 53 0 0.0 0.0 0.00 0.00 0.00 92 1017.5
20260508060055 54 0 0.0 1.0 0.00 0.00 0.00 91 1017.4
20260508054552 54 0 0.0 3.0 0.00 0.00 0.00 89 1017.6
20260508053055 56 0 0.0 0.0 0.00 0.00 0.00 86 1017.6
20260508051615 57 0 0.0 0.0 0.00 0.00 0.00 85 1017.6
20260508050048 56 0 0.0 0.0 0.00 0.00 0.00 85 1017.7
20260508044551 57 0 0.0 0.0 0.00 0.00 0.00 84 1017.4
20260508043049 59 0 0.0 2.0 0.00 0.00 0.00 81 1017.4
20260508041547 60 0 1.0 5.0 0.00 0.00 0.00 76 1017.1
20260508040053 61 0 1.0 7.0 0.00 0.00 0.00 76 1017.0
20260508034550 61 0 2.0 5.0 0.00 0.00 0.00 75 1017.0
20260508033050 61 327 0.0 9.0 0.00 0.00 0.00 74 1016.8
20260508031545 62 0 1.0 8.0 0.00 0.00 0.00 74 1017.1
20260508030048 62 0 3.0 10.0 0.00 0.00 0.00 73 1017.0
20260508024547 62 321 4.0 10.0 0.00 0.00 0.00 72 1016.6
20260508023051 63 254 2.0 12.0 0.00 0.00 0.00 72 1016.4
20260508021552 63 328 3.0 11.0 0.00 0.00 0.00 70 1016.1
20260508020050 64 323 2.0 11.0 0.00 0.00 0.00 70 1015.9
20260508014545 64 297 4.0 12.0 0.00 0.00 0.00 70 1015.8
20260508013049 65 0 1.0 13.0 0.00 0.00 0.00 70 1015.5
20260508011551 65 277 5.0 10.0 0.00 0.00 0.00 67 1015.1
20260508010134 66 301 3.0 11.0 0.00 0.00 0.00 67 1015.1
20260508004550 67 223 2.0 11.0 0.00 0.00 0.00 66 1014.8
20260508003046 67 296 1.0 15.0 0.00 0.00 0.00 65 1014.5
20260508001551 68 242 6.0 15.0 0.00 0.00 0.00 66 1014.2
20260508000049 69 236 4.0 13.0 0.00 0.00 0.00 66 1013.9
20260507234549 70 250 4.0 13.0 0.00 0.00 0.00 67 1013.9
20260507233051 71 279 6.0 14.0 0.00 0.00 0.00 66 1013.4
20260507231546 72 54 4.0 11.0 0.00 0.00 0.00 67 1013.2
20260507230105 72 275 6.0 14.0 0.00 0.00 0.00 68 1013.0